Volver al catálogo

THOR ABLESTAR DEB

ActivoLEO
NORAD 152·DEBRIS·🇺🇸 United States

Lanzado Jun 29, 1961 desde Cape Canaveral Space Force Station

Loading…

Próximos Pases (próximas 24 horas)

TLE

ActualizadoSource: Space-Track

Época: Sep 13, 2026, 23:24 UTC

1 00152U 61015AN  26256.97507135 -.00000008  00000-0  37006-4 0  9998
2 00152  66.5919  93.0790 0145317 138.2148 223.0146 14.11584000338615

Sigue THOR ABLESTAR DEB en tiempo real con AllMySat

Download on the App Store